Location: Góry Miechowskie
(50.3599°N, 20.1803°E)
Time: 15:55:00
(UTC+00:00)

Cosmos 1544 Rocket - Visible Passes

Search period start: 08 September 2024 00:00
Search period end: 18 September 2024 00:00
Orbit: 601 x 626 km, 82.5° (Epoch: 07 September)

Date Brightness Start Highest point End Pass type
(mag) Time Alt. Az. Time Alt. Az. Time Alt. Az.
08 Sep 3.7 02:23:30 10° S 02:27:48 73° E 02:32:11 10° NNE visible
09 Sep 6.3 01:03:51 10° ESE 01:06:16 15° E 01:08:41 10° NE visible
09 Sep 3.5 02:39:37 13° SSW 02:43:26 67° WNW 02:47:49 10° N visible
10 Sep 5.6 01:18:43 13° SE 01:21:38 24° E 01:25:08 10° NE visible
10 Sep 4.0 02:55:47 14° SW 02:59:10 40° WNW 03:03:19 10° N visible
11 Sep 4.8 01:34:48 22° SSE 01:37:05 38° E 01:41:09 10° NNE visible
11 Sep 4.7 03:11:52 13° WSW 03:14:58 25° WNW 03:18:38 10° NNW visible
12 Sep 3.8 01:50:52 34° SSE 01:52:37 66° E 01:56:58 10° NNE visible
12 Sep 5.2 03:28:04 10° WSW 03:30:52 16° WNW 03:33:40 10° NNW visible
13 Sep 6.2 00:29:48 12° E 00:31:06 13° E 00:33:13 10° NE visible
13 Sep 3.4 02:06:51 43° SSW 02:08:13 75° W 02:12:37 10° N visible
14 Sep 5.6 00:45:45 21° E 00:46:26 22° E 00:49:47 10° NE visible
14 Sep 3.9 02:22:49 37° WSW 02:23:54 44° WNW 02:28:07 10° N visible
15 Sep 4.8 01:01:41 35° E 01:01:51 35° E 01:05:51 10° NNE visible
15 Sep 4.6 02:38:44 25° W 02:39:40 28° WNW 02:43:28 10° N visible
16 Sep 4.0 01:17:34 58° E 01:17:34 58° E 01:21:41 10° NNE visible
16 Sep 5.1 02:54:37 17° W 02:55:32 18° WNW 02:58:34 10° NNW visible
16 Sep 6.4 23:56:22 12° ENE 23:56:22 12° ENE 23:57:36 10° ENE visible
17 Sep 3.7 01:33:26 68° N 01:33:26 68° N 01:37:21 10° N visible
17 Sep 5.6 03:10:29 11° WNW 03:11:28 12° WNW 03:13:02 10° NW visible
